FW8545 Weather Reports


time (UTC)temp
C
wind
direction
speed
KPH
gust
KPH
rain 1hr
cm
rain 24hr
cm
rain mn
cm
humidity
%
barometer
mb
20260507025921 17 49 0.0 0.0 0.00 0.00 0.00 32 1008.2
20260507023844 18 72 0.0 0.0 0.00 0.00 0.00 31 1007.8
20260507022814 18 78 0.0 0.0 0.00 0.00 0.00 30 1007.7
20260507021806 19 348 0.0 0.0 0.00 0.00 0.00 30 1007.5
20260507020824 19 338 0.0 6.4 0.00 0.00 0.00 29 1007.3
20260507013615 19 348 0.0 3.2 0.00 0.00 0.00 30 1007.0
20260507012623 19 312 0.0 3.2 0.00 0.00 0.00 30 1006.8
20260507011601 20 342 0.0 6.4 0.00 0.00 0.00 29 1006.5
20260507010547 20 348 0.0 4.8 0.00 0.00 0.00 29 1006.4
20260507005548 20 352 0.0 3.2 0.00 0.00 0.00 28 1006.4
20260507004543 21 348 0.0 0.0 0.00 0.00 0.00 27 1006.4
20260507003522 21 350 0.0 1.6 0.00 0.00 0.00 27 1006.3
20260507001408 21 338 0.0 3.2 0.00 0.00 0.00 25 1006.1
20260507000339 22 344 0.0 0.0 0.00 0.00 0.00 25 1005.8
20260506235309 22 344 0.0 0.0 0.00 0.00 0.00 24 1005.7
20260506234329 22 327 0.0 0.0 0.00 0.00 0.00 23 1005.8
20260506233343 22 327 0.0 1.6 0.00 0.00 0.00 23 1005.8
20260506232355 22 336 0.0 1.6 0.00 0.00 0.00 24 1005.9
20260506231335 22 340 0.0 0.0 0.00 0.00 0.00 22 1006.0
20260506230358 22 346 0.0 1.6 0.00 0.00 0.00 25 1005.9
20260506225408 22 336 0.0 0.0 0.00 0.00 0.00 23 1006.1
20260506223213 22 92 0.0 0.0 0.00 0.00 0.00 24 1006.4
20260506222159 22 29 0.0 0.0 0.00 0.00 0.00 23 1006.6
20260506221128 23 328 0.0 0.0 0.00 0.00 0.00 24 1006.6
20260506220059 23 352 0.0 1.6 0.00 0.00 0.00 23 1006.8
20260506215101 22 69 0.0 1.6 0.00 0.00 0.00 23 1006.8
20260506212950 22 113 0.0 0.0 0.00 0.00 0.00 25 1007.0
20260506212009 22 30 0.0 0.0 0.00 0.00 0.00 25 1007.0
20260506210959 22 333 0.0 0.0 0.00 0.00 0.00 24 1007.0
20260506204913 23 0 0.0 4.8 0.00 0.00 0.00 22 1007.0
20260506203926 23 340 0.0 4.8 0.00 0.00 0.00 20 1007.0
20260506201813 23 146 0.0 0.0 0.00 0.00 0.00 23 1007.2
20260506200820 23 132 0.0 0.0 0.00 0.00 0.00 23 1007.2
20260506195828 22 318 0.0 0.0 0.00 0.00 0.00 24 1007.3
20260506194852 22 50 0.0 0.0 0.00 0.00 0.00 24 1007.4
20260506193917 22 12 0.0 0.0 0.00 0.00 0.00 24 1007.5
20260506192918 22 155 0.0 1.6 0.00 0.00 0.00 24 1007.6
20260506185701 21 44 0.0 1.6 0.00 0.00 0.00 26 1008.1
20260506184637 21 112 0.0 0.0 0.00 0.00 0.00 28 1008.2
20260506183642 21 88 0.0 0.0 0.00 0.00 0.00 27 1008.3
20260506182625 21 81 0.0 0.0 0.00 0.00 0.00 27 1008.4
20260506181609 20 111 0.0 1.6 0.00 0.00 0.00 29 1008.6
20260506180604 20 92 0.0 1.6 0.00 0.00 0.00 29 1008.8
20260506175605 19 158 0.0 1.6 0.00 0.00 0.00 28 1008.9
20260506174608 19 88 0.0 0.0 0.00 0.00 0.00 28 1009.0
20260506173625 19 92 0.0 0.0 0.00 0.00 0.00 28 1009.3
20260506171502 18 79 0.0 0.0 0.00 0.00 0.00 31 1009.6
20260506170446 17 84 0.0 0.0 0.00 0.00 0.00 30 1009.9
20260506165455 17 101 0.0 0.0 0.00 0.00 0.00 32 1010.1
20260506164455 16 105 0.0 0.0 0.00 0.00 0.00 33 1010.3
20260506163450 15 82 0.0 0.0 0.00 0.00 0.00 35 1010.4
20260506161332 13 74 0.0 0.0 0.00 0.00 0.00 39 1010.7
20260506160315 11 78 0.0 0.0 0.00 0.00 0.00 41 1010.8
20260506155337 10 78 0.0 0.0 0.00 0.00 0.00 43 1011.0
20260506154330 9 75 0.0 0.0 0.00 0.00 0.00 44 1011.1
20260506153256 7 281 0.0 0.0 0.00 0.00 0.00 49 1011.3
20260506151134 6 284 0.0 0.0 0.00 0.00 0.00 51 1011.5
20260506150126 5 275 0.0 0.0 0.00 0.00 0.00 54 1011.7
20260506143942 3 248 0.0 0.0 0.00 0.00 0.00 59 1011.8
20260506142954 2 248 0.0 0.0 0.00 0.00 0.00 60 1012.0
20260506140834 1 321 0.0 0.0 0.00 0.00 0.00 62 1012.2
20260506135856 0 321 0.0 0.0 0.00 0.00 0.00 63 1012.3
20260506134828 0 279 0.0 0.0 0.00 0.00 0.00 64 1012.3
20260506133847 0 315 0.0 3.2 0.00 0.00 0.00 65 1012.3
20260506132910 0 282 0.0 0.0 0.00 0.00 0.00 66 1012.5
20260506131909 0 282 0.0 0.0 0.00 0.00 0.00 67 1012.6
20260506130931 -1 282 0.0 0.0 0.00 0.00 0.00 67 1012.4
20260506125956 -1 300 0.0 0.0 0.00 0.00 0.00 67 1012.5
20260506125007 -1 90 0.0 0.0 0.00 0.00 0.00 67 1012.6
20260506123948 -1 90 0.0 0.0 0.00 0.00 0.00 68 1012.6
20260506120640 -1 90 0.0 0.0 0.00 0.00 0.00 66 1012.7
20260506115607 -1 90 0.0 0.0 0.00 0.00 0.00 66 1012.8
20260506114610 -1 90 0.0 0.0 0.00 0.00 0.00 67 1013.0
20260506113623 -1 90 0.0 0.0 0.00 0.00 0.00 67 1013.1
20260506112625 -1 90 0.0 0.0 0.00 0.00 0.00 66 1013.1
20260506111553 0 90 0.0 0.0 0.00 0.00 0.00 65 1013.3
20260506105407 0 90 0.0 0.0 0.00 0.00 0.00 63 1013.6
20260506104406 0 90 0.0 0.0 0.00 0.00 0.00 63 1013.5
20260506103415 0 90 0.0 0.0 0.00 0.00 0.00 61 1013.7
20260506101235 0 90 0.0 0.0 0.00 0.00 0.00 60 1014.1
20260506095126 0 90 0.0 0.0 0.00 0.00 0.00 59 1014.4
20260506093004 0 91 0.0 0.0 0.00 0.00 0.00 57 1014.8
20260506091929 1 91 0.0 0.0 0.00 0.00 0.00 57 1014.8
20260506090933 1 91 0.0 0.0 0.00 0.00 0.00 57 1014.9
20260506085922 1 86 0.0 0.0 0.00 0.00 0.00 56 1015.1
20260506084851 1 78 0.0 0.0 0.00 0.00 0.00 56 1015.3
20260506083831 1 77 0.0 0.0 0.00 0.00 0.00 56 1015.4
20260506082852 1 77 0.0 0.0 0.00 0.00 0.00 56 1015.5
20260506081834 1 77 0.0 0.0 0.00 0.00 0.00 55 1015.7
20260506080850 1 77 0.0 0.0 0.00 0.00 0.00 54 1015.8
20260506071724 2 73 0.0 0.0 0.00 0.00 0.00 52 1016.2
20260506070748 2 73 0.0 0.0 0.00 0.00 0.00 51 1016.3
20260506062359 3 58 0.0 0.0 0.00 0.00 0.00 48 1017.1
20260506061337 3 74 0.0 3.2 0.00 0.00 0.00 48 1017.3
20260506060346 3 64 0.0 0.0 0.00 0.00 0.00 47 1017.2
20260506051056 4 66 0.0 0.0 0.00 0.00 0.00 45 1017.7
20260506045050 5 108 0.0 0.0 0.00 0.00 0.00 46 1017.9
20260506043002 5 108 0.0 0.0 0.00 0.00 0.00 44 1017.9
20260506041953 5 108 0.0 0.0 0.00 0.00 0.00 43 1017.8
20260506041014 6 108 0.0 0.0 0.00 0.00 0.00 42 1017.9
20260506040038 6 108 0.0 0.0 0.00 0.00 0.00 42 1018.0
20260506033927 6 121 0.0 1.6 0.00 0.00 0.00 39 1018.0
20260506032941 7 84 0.0 0.0 0.00 0.00 0.00 39 1018.0
20260506031913 7 73 0.0 0.0 0.00 0.00 0.00 37 1017.9
20260506030844 7 73 0.0 0.0 0.00 0.00 0.00 37 1017.9